period_start,C,m1,H,J0,J1,J2,J3,J4,J5,JA,JB,JC,JD,JJ,JK,JN,#
2014-07-07 00:00:40,0.12,0.26,0.00,28.53,33.28,35.56,9.33,40.42,1009.77,2013.99,3383.92,3197.97,3486.70,499.66,484.10,4.49,0000 0000 0000 0000 000000
2014-07-07 00:05:41,0.13,0.26,0.00,28.50,33.26,35.53,9.38,40.09,1009.78,2013.99,3381.33,3196.24,3484.87,500.02,484.44,4.53,0000 0000 0000 0000 000000
2014-07-07 00:10:42,0.11,0.27,0.00,28.48,33.25,35.51,9.29,40.05,1009.78,2014.01,3378.84,3194.64,3483.13,499.60,484.03,4.58,0000 0000 0000 0000 000000
2014-07-07 00:15:43,0.12,0.27,0.00,28.47,33.23,35.50,9.30,40.20,1009.78,2014.02,3376.32,3192.96,3481.44,499.69,484.22,4.62,0000 0000 0000 0000 000000
2014-07-07 00:20:44,0.05,0.28,0.00,28.48,33.21,35.49,9.31,39.82,1009.78,2014.09,3375.06,3192.03,3480.59,499.94,484.35,4.66,0000 0000 0000 0000 000000
2014-07-07 00:25:46,0.01,0.28,0.00,28.46,33.20,35.46,9.35,39.86,1009.78,2014.14,3374.98,3192.00,3480.13,499.72,484.12,4.70,0000 0000 0000 0000 000000
2014-07-07 00:30:47,0.06,0.28,0.00,28.45,33.17,35.45,9.36,39.88,1009.78,2014.51,3374.97,3192.00,3480.12,499.91,484.20,4.74,0000 0000 0000 0000 000000
2014-07-07 00:35:48,0.02,0.28,0.00,28.43,33.16,35.44,9.34,40.37,1009.81,2014.80,3374.93,3192.00,3480.21,499.72,484.28,4.79,0000 0000 0000 0000 000000
2014-07-07 00:40:49,0.00,0.28,0.00,28.40,33.14,35.43,9.26,40.13,1010.00,2014.97,3374.96,3192.00,3480.44,499.84,484.56,4.83,0000 0000 0000 0000 000000
2014-07-07 00:45:50,-0.00,0.28,0.00,28.37,33.12,35.41,9.30,39.96,1009.82,2014.98,3374.98,3192.02,3480.76,499.68,484.30,4.87,0000 0000 0000 0000 000000
2014-07-07 00:50:51,0.00,0.28,0.00,28.37,33.10,35.40,9.38,40.36,1009.80,2014.99,3374.93,3192.04,3480.80,500.34,484.87,4.91,0000 0000 0000 0000 000000
2014-07-07 00:55:53,0.01,0.28,0.00,28.35,33.09,35.38,9.35,39.87,1009.77,2014.99,3374.67,3192.04,3480.67,499.97,484.62,4.95,0000 0000 0000 0000 000000
2014-07-07 01:00:54,0.00,0.28,0.00,28.33,33.07,35.37,9.29,39.44,1009.58,2015.00,3374.37,3192.04,3480.73,499.81,484.23,4.99,0000 0000 0000 0000 000000
2014-07-07 01:05:55,0.02,0.28,0.00,28.32,33.05,35.35,9.40,40.19,1009.43,2015.03,3374.14,3192.03,3480.44,500.52,484.76,5.04,0000 0000 0000 0000 000000
2014-07-07 01:10:57,0.09,0.29,0.00,28.31,33.04,35.34,9.36,40.44,1009.77,2015.05,3372.52,3191.14,3479.30,500.34,485.00,5.08,0000 0000 0000 0000 000000
2014-07-07 01:15:58,0.21,0.29,0.00,28.29,33.02,35.32,9.38,40.56,1009.80,2015.23,3369.37,3189.23,3477.34,500.11,484.64,5.12,0000 0000 0000 0000 000000
2014-07-07 01:20:59,0.22,0.30,0.00,28.26,33.00,35.30,9.33,40.03,1009.78,2015.39,3365.10,3186.63,3474.61,499.75,484.58,5.16,0000 0000 0000 0000 000000
2014-07-07 01:26:01,0.17,0.31,0.00,28.24,32.99,35.28,9.31,39.90,1009.78,2015.80,3362.08,3184.81,3472.72,500.18,484.96,5.20,0000 0000 0000 0000 000000
2014-07-07 01:31:02,0.07,0.31,0.00,28.22,32.97,35.26,9.38,40.32,1009.78,2015.94,3360.31,3183.85,3471.64,500.12,484.97,5.25,0000 0000 0000 0000 000000
2014-07-07 01:36:03,0.11,0.32,0.00,28.21,32.95,35.24,9.39,40.46,1009.91,2015.98,3358.37,3182.58,3470.40,499.63,484.53,5.29,0000 0000 0000 0000 000000
2014-07-07 01:41:04,0.13,0.32,0.00,28.21,32.94,35.22,9.37,40.13,1010.25,2015.99,3355.61,3180.81,3468.48,500.23,485.00,5.33,0000 0000 0000 0000 000000
2014-07-07 01:46:05,0.01,0.33,0.00,28.19,32.92,35.20,9.36,40.22,1010.14,2015.99,3354.93,3180.10,3468.00,499.79,484.94,5.37,0000 0000 0000 0000 000000
2014-07-07 01:51:06,0.02,0.33,0.00,28.18,32.90,35.19,9.36,40.15,1010.12,2015.99,3354.23,3180.02,3467.93,499.98,484.99,5.41,0000 0000 0000 0000 000000
2014-07-07 01:56:08,-0.00,0.33,0.00,28.17,32.90,35.18,9.42,40.16,1010.13,2015.99,3354.00,3180.00,3467.71,500.66,485.84,5.46,0000 0000 0000 0000 000000
2014-07-07 02:01:09,0.01,0.33,0.00,28.14,32.87,35.17,9.33,39.70,1010.09,2015.99,3353.92,3179.98,3467.28,499.52,484.73,5.50,0000 0000 0000 0000 000000
2014-07-07 02:06:10,0.01,0.33,0.00,28.14,32.86,35.15,9.34,40.05,1010.11,2016.00,3353.56,3179.99,3467.05,500.52,485.64,5.54,0000 0000 0000 0000 000000
2014-07-07 02:11:11,0.00,0.33,0.00,28.13,32.85,35.14,9.38,40.08,1010.22,2016.00,3353.27,3179.98,3467.06,500.20,485.31,5.58,0000 0000 0000 0000 000000
2014-07-07 02:16:12,0.00,0.33,0.00,28.10,32.83,35.13,9.44,40.17,1010.27,2016.02,3353.09,3179.98,3467.04,500.38,485.59,5.62,0000 0000 0000 0000 000000
2014-07-07 02:21:13,0.02,0.33,0.00,28.10,32.82,35.11,9.37,40.07,1010.24,2016.09,3352.91,3179.77,3467.02,499.54,484.83,5.66,0000 0000 0000 0000 000000
2014-07-07 02:26:15,0.12,0.33,0.00,28.10,32.80,35.10,9.28,39.63,1010.23,2016.12,3351.10,3178.38,3465.88,500.01,485.07,5.71,0000 0000 0000 0000 000000
2014-07-07 02:31:16,0.09,0.34,0.00,28.10,32.79,35.08,9.31,39.67,1010.08,2016.20,3349.15,3177.36,3464.70,499.82,484.98,5.75,0000 0000 0000 0000 000000
2014-07-07 02:36:17,0.09,0.34,0.00,28.10,32.77,35.08,9.29,39.50,1009.91,2016.34,3347.54,3176.30,3463.67,499.51,484.76,5.79,0000 0000 0000 0000 000000
2014-07-07 02:41:18,0.10,0.35,0.00,28.10,32.77,35.06,9.33,39.54,1010.13,2016.78,3346.29,3175.72,3463.00,499.89,485.15,5.83,0000 0000 0000 0000 000000
2014-07-07 02:46:19,0.03,0.35,0.00,28.08,32.75,35.04,9.29,39.63,1010.22,2016.81,3345.53,3175.11,3462.35,499.58,485.06,5.87,0000 0000 0000 0000 000000
2014-07-07 02:51:20,0.02,0.35,0.00,28.09,32.75,35.03,9.33,39.67,1010.26,2016.87,3345.01,3175.00,3462.00,499.76,485.01,5.91,0000 0000 0000 0000 000000
2014-07-07 02:56:21,0.01,0.35,0.00,28.10,32.73,35.01,9.33,39.55,1010.26,2016.94,3344.99,3174.98,3462.00,500.31,485.60,5.96,0000 0000 0000 0000 000000
2014-07-07 03:01:22,-0.00,0.35,0.00,28.10,32.72,35.01,9.36,39.46,1010.25,2016.97,3344.99,3174.98,3462.00,500.14,485.48,6.00,0000 0000 0000 0000 000000
2014-07-07 03:06:23,0.00,0.35,0.00,28.12,32.72,35.00,9.35,39.40,1010.24,2016.99,3344.99,3174.99,3462.00,500.21,485.37,6.04,0000 0000 0000 0000 000000
2014-07-07 03:11:25,0.00,0.35,0.00,28.13,32.72,35.00,9.34,39.52,1010.27,2016.99,3344.99,3174.99,3462.00,499.77,485.02,6.08,0000 0000 0000 0000 000000
2014-07-07 03:16:25,0.00,0.35,0.00,28.14,32.70,34.99,9.42,39.48,1010.27,2016.99,3344.97,3174.99,3462.00,500.30,485.44,6.12,0000 0000 0000 0000 000000
2014-07-07 03:21:27,0.00,0.35,0.00,28.16,32.70,34.98,9.32,39.52,1010.26,2016.99,3344.96,3174.97,3461.99,499.90,484.95,6.17,0000 0000 0000 0000 000000
2014-07-07 03:26:28,0.00,0.35,0.00,28.17,32.70,34.98,9.42,39.73,1010.25,2016.99,3344.70,3174.96,3461.98,500.16,485.17,6.21,0000 0000 0000 0000 000000
2014-07-07 03:31:30,0.01,0.35,0.00,28.16,32.70,34.98,9.32,39.64,1010.05,2016.99,3344.43,3174.88,3461.96,499.78,484.76,6.25,0000 0000 0000 0000 000000
2014-07-07 03:36:31,0.01,0.35,0.00,28.17,32.70,34.98,9.36,39.59,1010.06,2016.99,3344.21,3174.74,3461.90,499.90,484.88,6.29,0000 0000 0000 0000 000000
2014-07-07 03:41:32,0.01,0.35,0.00,28.19,32.70,34.96,9.32,39.21,1009.92,2016.99,3344.10,3174.48,3461.69,499.78,484.63,6.33,0000 0000 0000 0000 000000
2014-07-07 03:46:33,-0.00,0.35,0.00,28.21,32.70,34.97,9.36,39.61,1009.85,2016.99,3344.04,3174.40,3461.49,499.88,484.81,6.37,0000 0000 0000 0000 000000
2014-07-07 03:51:35,0.01,0.35,0.00,28.22,32.70,34.97,9.41,39.73,1009.81,2016.99,3344.04,3174.23,3461.22,500.29,485.13,6.42,0000 0000 0000 0000 000000
2014-07-07 03:56:36,-0.01,0.35,0.00,28.23,32.70,34.98,9.26,39.52,1009.80,2016.99,3344.05,3174.30,3461.34,499.53,484.39,6.46,0000 0000 0000 0000 000000
2014-07-07 04:01:37,0.01,0.35,0.00,28.26,32.70,34.98,9.34,39.55,1009.94,2016.99,3344.02,3174.18,3461.12,499.73,484.71,6.50,0000 0000 0000 0000 000000
2014-07-07 04:06:38,0.00,0.35,0.00,28.28,32.72,34.99,9.37,39.67,1010.01,2016.99,3344.00,3174.06,3461.04,500.13,485.21,6.54,0000 0000 0000 0000 000000
2014-07-07 04:11:39,0.00,0.35,0.00,28.30,32.72,34.99,9.33,39.58,1010.06,2016.99,3344.00,3174.02,3461.02,499.78,484.53,6.58,0000 0000 0000 0000 000000
2014-07-07 04:16:41,-0.00,0.35,0.00,28.32,32.72,34.98,9.35,39.72,1010.08,2016.98,3344.00,3174.02,3461.00,500.13,484.87,6.63,0000 0000 0000 0000 000000
2014-07-07 04:21:42,0.00,0.35,0.00,28.34,32.72,35.00,9.36,39.67,1010.25,2016.99,3343.99,3174.00,3461.00,500.49,485.09,6.67,0000 0000 0000 0000 000000
2014-07-07 04:26:43,0.00,0.35,0.00,28.26,32.74,35.01,9.27,39.58,1010.27,2016.97,3343.97,3174.00,3461.00,499.58,484.70,6.71,0000 0000 0000 0000 000000
2014-07-07 04:31:44,0.00,0.35,0.00,28.10,32.74,35.04,9.41,39.77,1010.27,2016.98,3343.94,3174.00,3461.00,500.43,485.55,6.75,0000 0000 0000 0000 000000
2014-07-07 04:36:45,0.02,0.35,0.00,28.01,32.73,35.07,9.44,40.00,1010.27,2016.99,3343.38,3173.98,3460.95,500.50,485.91,6.79,0000 0000 0000 0000 000000
2014-07-07 04:41:46,0.00,0.35,0.00,27.99,32.72,35.06,9.39,40.30,1010.27,2016.99,3343.00,3173.97,3460.93,499.69,485.23,6.83,0000 0000 0000 0000 000000
2014-07-07 04:46:47,0.00,0.35,0.00,27.97,32.72,35.05,9.46,40.08,1010.27,2016.99,3343.00,3173.97,3460.90,500.21,485.70,6.88,0000 0000 0000 0000 000000
2014-07-07 04:51:48,0.00,0.35,0.00,27.97,32.71,35.03,9.38,39.64,1010.27,2016.99,3343.00,3173.99,3460.95,499.89,485.44,6.92,0000 0000 0000 0000 000000
2014-07-07 04:56:49,0.00,0.35,0.00,27.99,32.70,35.01,9.43,39.94,1010.27,2016.99,3343.00,3173.99,3460.92,500.02,485.48,6.96,0000 0000 0000 0000 000000
2014-07-07 05:01:50,0.00,0.35,0.00,28.00,32.70,34.99,9.40,39.81,1010.26,2016.99,3343.00,3173.99,3460.97,500.41,485.68,7.00,0000 0000 0000 0000 000000
2014-07-07 05:06:51,0.00,0.35,0.00,28.02,32.68,34.95,9.34,39.30,1010.27,2016.99,3343.00,3173.99,3460.99,500.26,485.58,7.04,0000 0000 0000 0000 000000
2014-07-07 05:11:52,0.00,0.35,0.00,28.04,32.67,34.94,9.33,39.14,1010.24,2016.99,3343.00,3173.99,3460.98,500.14,485.46,7.09,0000 0000 0000 0000 000000
2014-07-07 05:16:53,0.00,0.35,0.00,28.04,32.67,34.93,9.39,39.18,1010.17,2016.99,3343.00,3173.99,3460.98,500.22,485.30,7.13,0000 0000 0000 0000 000000
2014-07-07 05:21:54,0.00,0.35,0.00,28.02,32.65,34.92,9.33,39.18,1010.11,2016.99,3343.00,3173.99,3460.98,500.17,485.43,7.17,0000 0000 0000 0000 000000
2014-07-07 05:26:55,0.00,0.35,0.00,27.95,32.65,34.91,9.35,39.15,1010.17,2016.99,3343.00,3173.99,3460.97,499.78,485.33,7.21,0000 0000 0000 0000 000000
2014-07-07 05:31:56,0.06,0.36,0.00,27.81,32.65,34.93,9.25,39.07,1010.08,2017.01,3342.39,3173.24,3460.14,499.50,485.05,7.25,0000 0000 0000 0000 000000
2014-07-07 05:36:58,-0.00,0.36,0.00,27.68,32.62,35.03,9.30,39.13,1009.97,2017.02,3342.20,3173.14,3459.95,499.90,485.68,7.30,0000 0000 0000 0000 000000
2014-07-07 05:41:59,0.08,0.36,0.00,27.57,32.61,35.17,9.36,39.88,1010.07,2017.06,3341.13,3172.12,3459.03,500.26,486.33,7.34,0000 0000 0000 0000 000000
2014-07-07 05:47:00,0.01,0.36,0.00,27.47,32.58,35.18,9.44,40.64,1010.08,2017.16,3341.00,3172.01,3458.95,500.34,486.31,7.38,0000 0000 0000 0000 000000
2014-07-07 05:52:01,0.02,0.36,0.00,27.36,32.55,35.13,9.37,39.68,1009.91,2017.33,3341.01,3172.11,3458.98,499.68,485.89,7.42,0000 0000 0000 0000 000000
2014-07-07 05:57:02,0.03,0.36,0.00,27.25,32.52,35.01,9.33,39.52,1009.83,2017.75,3341.05,3172.57,3459.00,499.37,485.76,7.46,0000 0000 0000 0000 000000
2014-07-07 06:02:03,0.00,0.36,0.00,27.16,32.48,34.94,9.42,39.36,1009.82,2017.95,3341.06,3172.90,3459.04,500.46,486.93,7.50,0000 0000 0000 0000 000000
2014-07-07 06:07:04,-0.01,0.36,0.00,27.04,32.44,34.81,9.43,39.41,1009.82,2017.99,3341.27,3172.99,3459.40,500.00,486.63,7.55,0000 0000 0000 0000 000000
2014-07-07 06:12:05,-0.01,0.36,0.00,26.94,32.39,34.72,9.44,39.39,1009.81,2018.00,3341.64,3173.01,3459.92,500.22,486.96,7.59,0000 0000 0000 0000 000000
2014-07-07 06:17:06,-0.01,0.36,0.00,26.87,32.34,34.64,9.46,39.13,1009.79,2018.06,3341.96,3173.41,3459.99,500.08,487.04,7.63,0000 0000 0000 0000 000000
2014-07-07 06:22:07,0.06,0.36,0.00,26.79,32.29,34.53,9.45,39.17,1009.79,2018.61,3342.00,3173.96,3460.21,499.90,487.01,7.67,0000 0000 0000 0000 000000
2014-07-07 06:27:08,0.00,0.36,0.00,26.75,32.23,34.50,9.40,39.27,1009.79,2018.95,3342.38,3174.04,3460.92,500.10,487.26,7.71,0000 0000 0000 0000 000000
2014-07-07 06:32:09,-0.03,0.36,0.00,26.77,32.17,34.39,9.41,39.20,1009.79,2018.99,3342.94,3174.66,3461.00,500.16,487.15,7.76,0000 0000 0000 0000 000000
2014-07-07 06:37:10,-0.01,0.36,0.00,26.87,32.11,34.38,9.38,39.27,1009.78,2019.02,3343.00,3174.97,3461.40,499.93,486.91,7.80,0000 0000 0000 0000 000000
2014-07-07 06:42:12,0.06,0.36,0.00,26.95,32.06,34.41,9.45,39.10,1009.78,2019.55,3343.28,3175.15,3461.97,500.21,487.04,7.84,0000 0000 0000 0000 000000
2014-07-07 06:47:13,-0.01,0.36,0.00,27.03,32.02,34.40,9.38,39.02,1009.79,2019.96,3343.85,3175.81,3462.04,499.75,486.54,7.88,0000 0000 0000 0000 000000
2014-07-07 06:52:14,-0.00,0.36,0.00,27.11,31.98,34.33,9.36,39.41,1009.81,2019.99,3343.97,3175.96,3462.19,500.15,486.49,7.92,0000 0000 0000 0000 000000
2014-07-07 06:57:15,-0.01,0.36,0.00,27.20,31.94,34.20,9.29,39.14,1009.80,2019.99,3343.99,3175.99,3462.86,499.62,486.12,7.96,0000 0000 0000 0000 000000
2014-07-07 07:02:16,0.00,0.36,0.00,27.29,31.91,34.13,9.37,39.18,1009.81,2020.01,3343.99,3176.01,3462.98,499.67,486.02,8.01,0000 0000 0000 0000 000000
2014-07-07 07:07:17,0.01,0.36,0.00,27.38,31.89,34.08,9.40,39.21,1009.80,2020.11,3344.04,3176.14,3462.99,500.28,486.49,8.05,0000 0000 0000 0000 000000
2014-07-07 07:12:18,0.01,0.36,0.00,27.45,31.87,34.02,9.36,39.15,1009.79,2020.48,3344.28,3176.57,3463.02,499.95,485.99,8.09,0000 0000 0000 0000 000000
2014-07-07 07:17:19,0.19,0.37,0.00,27.51,31.86,34.00,9.35,39.14,1009.83,2020.71,3342.58,3174.61,3460.82,500.23,486.17,8.13,0000 0000 0000 0000 000000
2014-07-07 07:22:20,0.02,0.37,0.00,27.59,31.85,34.00,9.39,39.19,1009.83,2020.82,3342.00,3174.00,3460.02,499.92,485.71,8.17,0000 0000 0000 0000 000000
2014-07-07 07:27:22,0.02,0.37,0.00,27.66,31.85,33.99,9.35,39.21,1009.80,2020.91,3341.99,3173.98,3460.01,499.78,485.42,8.22,0000 0000 0000 0000 000000
2014-07-07 07:32:23,0.05,0.37,0.00,27.71,31.85,34.01,9.36,39.20,1009.84,2020.93,3341.67,3173.64,3459.70,499.78,485.43,8.26,0000 0000 0000 0000 000000
2014-07-07 07:37:24,0.02,0.38,0.00,27.79,31.85,34.03,9.33,39.16,1009.94,2020.96,3341.14,3173.02,3459.12,499.79,485.24,8.30,0000 0000 0000 0000 000000
2014-07-07 07:42:25,0.01,0.38,0.00,27.84,31.87,34.05,9.31,38.80,1009.99,2020.92,3340.97,3172.81,3458.96,499.56,484.94,8.34,0000 0000 0000 0000 000000
2014-07-07 07:47:26,0.08,0.38,0.00,27.88,31.88,34.08,9.25,38.80,1010.08,2020.85,3339.47,3171.82,3457.97,499.70,485.25,8.38,0000 0000 0000 0000 000000
2014-07-07 07:52:27,-0.01,0.38,0.00,27.96,31.90,34.10,9.34,39.21,1010.16,2020.51,3339.00,3171.20,3457.18,499.89,484.97,8.42,0000 0000 0000 0000 000000
2014-07-07 07:57:28,-0.02,0.38,0.00,28.00,31.92,34.13,9.28,39.10,1010.26,2020.35,3339.00,3171.04,3457.05,499.81,485.31,8.47,0000 0000 0000 0000 000000
2014-07-07 08:02:29,-0.01,0.38,0.00,28.06,31.94,34.17,9.25,39.15,1010.27,2020.28,3338.98,3171.02,3457.01,499.94,485.28,8.51,0000 0000 0000 0000 000000
2014-07-07 08:07:30,-0.01,0.38,0.00,28.10,31.96,34.20,9.29,38.85,1010.27,2020.07,3338.96,3171.00,3457.00,499.73,484.83,8.55,0000 0000 0000 0000 000000
2014-07-07 08:12:31,0.00,0.38,0.00,28.16,31.98,34.23,9.35,39.21,1010.27,2020.03,3338.76,3171.00,3456.99,500.22,485.29,8.59,0000 0000 0000 0000 000000
2014-07-07 08:17:33,0.01,0.38,0.00,28.22,32.01,34.26,9.29,38.89,1010.26,2020.01,3338.23,3170.91,3456.78,499.86,484.78,8.63,0000 0000 0000 0000 000000
2014-07-07 08:22:34,0.03,0.38,0.00,28.27,32.04,34.30,9.35,39.36,1010.27,2020.00,3338.04,3170.40,3456.18,500.24,485.20,8.67,0000 0000 0000 0000 000000
2014-07-07 08:27:35,0.00,0.38,0.00,28.32,32.07,34.34,9.28,39.41,1010.27,2020.00,3338.00,3170.04,3456.00,500.10,485.00,8.72,0000 0000 0000 0000 000000
2014-07-07 08:32:36,-0.00,0.38,0.00,28.37,32.10,34.37,9.36,39.32,1010.27,2019.97,3337.98,3170.00,3456.00,500.39,485.19,8.76,0000 0000 0000 0000 000000
2014-07-07 08:37:36,-0.01,0.38,0.00,28.38,32.13,34.41,9.42,39.16,1010.27,2019.84,3337.72,3169.99,3455.93,500.59,485.29,8.80,0000 0000 0000 0000 000000
2014-07-07 08:42:38,-0.03,0.38,0.00,28.42,32.16,34.46,9.32,39.38,1010.28,2019.27,3337.10,3169.65,3455.29,500.19,484.85,8.84,0000 0000 0000 0000 000000
2014-07-07 08:47:39,0.01,0.38,0.00,28.46,32.20,34.50,9.36,39.33,1010.29,2019.09,3337.00,3169.19,3455.02,500.17,484.89,8.88,0000 0000 0000 0000 000000
2014-07-07 08:52:40,-0.00,0.38,0.00,28.49,32.23,34.54,9.32,39.65,1010.30,2019.01,3336.93,3169.01,3454.98,500.13,484.64,8.93,0000 0000 0000 0000 000000
2014-07-07 08:57:41,0.01,0.38,0.00,28.52,32.26,34.58,9.32,39.61,1010.29,2019.00,3336.52,3168.99,3454.83,499.84,484.42,8.97,0000 0000 0000 0000 000000
2014-07-07 09:02:42,0.02,0.38,0.00,28.57,32.29,34.61,9.33,39.36,1010.30,2018.99,3336.12,3168.83,3454.30,500.47,485.02,9.01,0000 0000 0000 0000 000000
2014-07-07 09:07:43,0.01,0.38,0.00,28.60,32.32,34.64,9.26,39.17,1010.30,2018.91,3336.00,3168.14,3454.01,499.83,484.43,9.05,0000 0000 0000 0000 000000
2014-07-07 09:12:44,-0.02,0.38,0.00,28.62,32.36,34.68,9.31,39.39,1010.29,2018.75,3335.97,3168.01,3453.99,500.16,484.41,9.09,0000 0000 0000 0000 000000
2014-07-07 09:17:45,-0.03,0.38,0.00,28.64,32.39,34.72,9.22,39.30,1010.41,2018.29,3335.62,3167.99,3453.71,499.60,483.97,9.13,0000 0000 0000 0000 000000
2014-07-07 09:22:46,0.01,0.38,0.00,28.68,32.42,34.74,9.36,39.63,1010.44,2018.06,3335.08,3167.87,3453.05,500.04,484.43,9.18,0000 0000 0000 0000 000000
2014-07-07 09:27:47,0.01,0.38,0.00,28.71,32.46,34.78,9.30,39.33,1010.37,2018.01,3335.00,3167.34,3453.00,499.68,483.94,9.22,0000 0000 0000 0000 000000
2014-07-07 09:32:48,0.00,0.38,0.00,28.74,32.49,34.81,9.29,39.73,1010.64,2018.00,3334.97,3167.01,3452.93,500.05,484.57,9.26,0000 0000 0000 0000 000000
2014-07-07 09:37:50,0.01,0.38,0.00,28.76,32.52,34.84,9.30,39.33,1010.74,2017.99,3334.74,3166.99,3452.48,499.69,484.11,9.30,0000 0000 0000 0000 000000
2014-07-07 09:42:51,0.01,0.38,0.00,28.78,32.55,34.87,9.29,39.87,1010.74,2017.95,3334.21,3166.91,3452.07,499.95,484.31,9.34,0000 0000 0000 0000 000000
2014-07-07 09:47:52,0.00,0.38,0.00,28.82,32.58,34.90,9.30,39.38,1010.74,2017.80,3334.03,3166.42,3452.00,499.83,484.00,9.39,0000 0000 0000 0000 000000
2014-07-07 09:52:53,-0.04,0.38,0.00,28.84,32.61,34.93,9.33,39.64,1010.76,2017.29,3333.99,3166.02,3451.94,500.04,484.34,9.43,0000 0000 0000 0000 000000
2014-07-07 09:57:54,-0.01,0.38,0.00,28.89,32.64,34.96,9.32,39.48,1010.76,2017.06,3333.89,3166.00,3451.42,499.94,483.94,9.47,0000 0000 0000 0000 000000
2014-07-07 10:02:55,0.01,0.38,0.00,28.90,32.67,34.99,9.24,39.36,1010.76,2017.01,3333.48,3165.96,3451.06,499.72,483.82,9.51,0000 0000 0000 0000 000000
2014-07-07 10:07:56,0.02,0.38,0.00,28.91,32.71,35.02,9.34,39.52,1010.76,2017.00,3333.06,3165.65,3451.00,499.94,484.10,9.55,0000 0000 0000 0000 000000
2014-07-07 10:12:57,0.01,0.38,0.00,28.94,32.74,35.06,9.34,39.38,1010.75,2017.00,3333.00,3165.13,3450.92,500.22,484.32,9.59,0000 0000 0000 0000 000000
2014-07-07 10:17:58,0.00,0.38,0.00,28.97,32.77,35.09,9.28,39.16,1010.75,2016.97,3332.98,3165.01,3450.61,500.15,484.18,9.64,0000 0000 0000 0000 000000
2014-07-07 10:22:59,0.00,0.38,0.00,28.99,32.80,35.13,9.33,39.88,1010.76,2016.90,3332.88,3164.99,3450.10,499.76,483.84,9.68,0000 0000 0000 0000 000000
2014-07-07 10:28:00,-0.03,0.38,0.00,29.02,32.83,35.16,9.27,39.55,1010.76,2016.51,3332.24,3164.80,3449.99,499.83,483.85,9.72,0000 0000 0000 0000 000000
2014-07-07 10:33:01,-0.01,0.38,0.00,29.06,32.86,35.19,9.31,39.43,1010.76,2016.06,3332.02,3164.22,3449.89,499.79,483.82,9.76,0000 0000 0000 0000 000000
2014-07-07 10:38:03,0.01,0.38,0.00,29.09,32.89,35.23,9.27,39.06,1010.76,2016.02,3332.00,3164.02,3449.34,499.91,483.84,9.80,0000 0000 0000 0000 000000
2014-07-07 10:43:04,0.00,0.38,0.00,29.15,32.92,35.26,9.37,39.92,1010.75,2016.00,3331.91,3163.99,3449.02,500.11,483.87,9.85,0000 0000 0000 0000 000000
2014-07-07 10:48:05,0.02,0.38,0.00,29.19,32.96,35.30,9.33,39.89,1010.75,2016.00,3331.44,3163.82,3448.99,499.71,483.42,9.89,0000 0000 0000 0000 000000
2014-07-07 10:53:06,0.02,0.38,0.00,29.23,32.98,35.34,9.28,40.46,1010.76,2016.00,3331.02,3163.33,3448.87,499.73,483.40,9.93,0000 0000 0000 0000 000000
2014-07-07 10:58:07,0.01,0.38,0.00,29.27,33.01,35.40,9.37,40.48,1010.76,2015.96,3331.00,3163.03,3448.29,500.20,483.71,9.97,0000 0000 0000 0000 000000
2014-07-07 11:03:08,-0.02,0.38,0.00,29.30,33.04,35.44,9.36,40.55,1010.76,2015.77,3330.96,3163.00,3448.02,500.58,483.98,10.01,0000 0000 0000 0000 000000
2014-07-07 11:08:10,-0.03,0.38,0.00,29.34,33.07,35.48,9.30,40.38,1010.76,2015.33,3330.64,3162.96,3448.00,500.22,483.82,10.06,0000 0000 0000 0000 000000
2014-07-07 11:13:11,0.00,0.38,0.00,29.37,33.11,35.52,9.34,40.43,1010.76,2015.10,3330.15,3162.67,3447.93,499.87,483.29,10.10,0000 0000 0000 0000 000000
2014-07-07 11:18:12,0.01,0.38,0.00,29.40,33.14,35.54,9.32,40.24,1010.76,2015.01,3330.01,3162.13,3447.43,500.04,483.37,10.14,0000 0000 0000 0000 000000
2014-07-07 11:23:12,0.00,0.38,0.00,29.41,33.16,35.57,9.31,40.24,1010.76,2015.00,3329.99,3162.01,3447.05,500.73,484.14,10.18,0000 0000 0000 0000 000000
2014-07-07 11:28:13,0.00,0.38,0.00,29.43,33.19,35.57,9.31,40.09,1010.76,2014.98,3329.89,3161.99,3446.99,500.38,483.70,10.22,0000 0000 0000 0000 000000
2014-07-07 11:33:14,0.00,0.38,0.00,29.43,33.22,35.59,9.33,40.08,1010.76,2014.89,3329.54,3161.92,3446.90,499.99,483.19,10.26,0000 0000 0000 0000 000000
2014-07-07 11:38:15,0.01,0.38,0.00,29.44,33.25,35.60,9.35,39.98,1010.76,2014.72,3329.14,3161.70,3446.67,499.78,483.10,10.31,0000 0000 0000 0000 000000
2014-07-07 11:43:16,-0.02,0.38,0.00,29.44,33.27,35.61,9.31,40.21,1010.76,2014.35,3329.01,3161.10,3446.09,500.00,483.28,10.35,0000 0000 0000 0000 000000
2014-07-07 11:48:18,-0.02,0.38,0.00,29.42,33.30,35.63,9.34,40.13,1010.76,2014.11,3329.00,3161.01,3446.00,499.60,483.05,10.39,0000 0000 0000 0000 000000
2014-07-07 11:53:19,-0.00,0.38,0.00,29.41,33.31,35.64,9.30,40.13,1010.76,2014.01,3328.93,3161.00,3445.99,499.81,483.32,10.43,0000 0000 0000 0000 000000
2014-07-07 11:58:20,0.01,0.38,0.00,29.37,33.33,35.66,9.34,39.97,1010.76,2014.00,3328.57,3160.97,3445.82,500.02,483.64,10.47,0000 0000 0000 0000 000000
2014-07-07 12:03:21,0.01,0.38,0.00,29.31,33.35,35.67,9.27,39.58,1010.75,2014.00,3328.19,3160.85,3445.41,499.70,483.23,10.51,0000 0000 0000 0000 000000
2014-07-07 12:08:22,0.02,0.38,0.00,29.27,33.36,35.68,9.28,39.64,1010.74,2013.99,3328.04,3160.44,3445.10,499.98,483.52,10.56,0000 0000 0000 0000 000000
2014-07-07 12:13:23,0.00,0.38,0.00,29.20,33.37,35.69,9.32,39.81,1010.75,2013.98,3328.00,3160.15,3445.00,499.90,483.67,10.60,0000 0000 0000 0000 000000
2014-07-07 12:18:25,-0.00,0.38,0.00,29.15,33.37,35.70,9.38,40.02,1010.76,2013.96,3328.00,3160.02,3445.00,500.11,483.82,10.64,0000 0000 0000 0000 000000
2014-07-07 12:23:26,-0.01,0.38,0.00,29.08,33.38,35.71,9.27,39.73,1010.76,2013.93,3327.98,3160.00,3445.00,499.86,483.83,10.68,0000 0000 0000 0000 000000
2014-07-07 12:28:27,0.01,0.38,0.00,29.05,33.40,35.71,9.38,39.73,1010.75,2013.91,3327.91,3160.00,3444.99,500.00,484.07,10.72,0000 0000 0000 0000 000000
2014-07-07 12:33:28,-0.00,0.38,0.00,29.03,33.40,35.70,9.35,39.98,1010.76,2013.88,3327.82,3160.00,3444.95,499.95,483.89,10.77,0000 0000 0000 0000 000000
2014-07-07 12:38:29,0.00,0.38,0.00,29.01,33.40,35.69,9.30,39.83,1010.75,2013.90,3327.78,3160.00,3444.96,499.65,483.68,10.81,0000 0000 0000 0000 000000
2014-07-07 12:43:30,0.00,0.38,0.00,28.98,33.40,35.69,9.38,40.07,1010.72,2013.81,3327.48,3160.00,3444.91,500.32,484.25,10.85,0000 0000 0000 0000 000000
2014-07-07 12:48:32,-0.01,0.38,0.00,28.95,33.39,35.68,9.36,40.17,1010.75,2013.81,3327.37,3160.00,3444.95,500.15,484.21,10.89,0000 0000 0000 0000 000000
2014-07-07 12:53:33,-0.00,0.38,0.00,28.91,33.38,35.68,9.38,40.30,1010.75,2013.81,3327.27,3160.00,3444.92,500.53,484.71,10.93,0000 0000 0000 0000 000000
2014-07-07 12:58:34,0.00,0.38,0.00,28.90,33.38,35.68,9.34,39.98,1010.71,2013.87,3327.33,3160.00,3444.94,499.85,484.16,10.98,0000 0000 0000 0000 000000
2014-07-07 13:03:35,0.00,0.38,0.00,28.87,33.37,35.66,9.28,40.16,1010.65,2013.93,3327.55,3160.00,3444.97,499.71,483.91,11.02,0000 0000 0000 0000 000000